Flag for Cote d'Ivoire (Ivory Coast) Weather past 2 weeks in Abidjan, Cote d'Ivoire (Ivory Coast)

Now
75 °F

Drizzle. Broken clouds.


Feels Like: 73 °F
Forecast: 74 / 81 °F
Wind: 12 mph from West

Location: Abidjan Airport

Current Time: Aug 4, 2015 at 2:33:47 PM

Latest Report: Aug 4, 2015 at 2:00 PM


Visibility: 4 mi

Pressure: 29.95 "Hg

Humidity: 100%

Dew point: 75 °F

Location of AbidjanLocation

Historic Weather in Abidjan — Graph

°F

Abidjan temperature yesterday

Maximum temperature yesterday: 82 °F (at 11:30 AM)
Minimum temperature yesterday: 73 °F (at 1:04 AM)
Average temperature yesterday: 77 °F

Past Weeks' High & Low Weather Summary

 TemperatureHumidityPressure
High82 °F (Jul 20, 1:00 PM)100% (Jul 21, 5:00 AM)30.07 "Hg (Jul 21, 5:00 AM)
Low72 °F (Jul 23, 5:00 AM)70% (Jul 24, 12:30 PM)29.89 "Hg (Aug 1, 4:00 PM)
Average77 °F88%29.97 "Hg
* Reported Jul 20 1:00 PM — Aug 4 1:30 PM, Abidjan, Weather by CustomWeather, © 2015

Note: Actual official high and low records may vary slightly from our data, if they occured in-between our weather recording intervals... More about our weather records

Advertising

Abidjan weather history for previous 24 hours

 ConditionsComfort  
Time TempWeatherWind HumidityBarometerVisibility
1:30 PM
Tue, Aug 4
75 °FDrizzle. Broken clouds.12 mph100%29.95 "Hg3 mi
1:00 PM75 °FDrizzle. Broken clouds.10 mph100%29.95 "Hg4 mi
12:30 PM75 °FDrizzle. Broken clouds.9 mph100%29.98 "Hg2 mi
12:00 PM77 °FDrizzle. Broken clouds.12 mph94%29.98 "Hg4 mi
11:30 AM79 °FBroken clouds.9 mph89%29.98 "HgN/A
11:00 AM77 °FPartly sunny.8 mph94%29.98 "HgN/A
10:30 AM77 °FPartly sunny.8 mph94%29.98 "HgN/A
10:00 AM77 °FPartly sunny.8 mph94%30.01 "HgN/A
9:30 AM75 °FPartly sunny.8 mph100%30.01 "Hg4 mi
9:00 AM77 °FPartly sunny.7 mph94%30.01 "Hg5 mi
8:30 AM75 °FPartly sunny.7 mph100%29.98 "Hg5 mi
8:00 AM73 °FPartly sunny.8 mph100%29.98 "Hg4 mi
7:30 AM73 °FPartly sunny.9 mph100%29.98 "Hg4 mi
7:00 AM73 °FPartly sunny.6 mph100%29.95 "Hg4 mi
6:30 AM75 °FPartly sunny.7 mph100%29.95 "Hg4 mi
6:00 AM75 °FPassing clouds.6 mph100%29.95 "Hg4 mi
5:30 AM75 °FMostly cloudy.7 mph100%29.95 "Hg4 mi
5:00 AM75 °FMostly cloudy.5 mph100%29.95 "Hg4 mi
4:30 AM75 °FMostly cloudy.2 mph100%29.95 "Hg4 mi
4:00 AM73 °FFog.3 mph100%29.95 "Hg2 mi
3:00 AM73 °FOvercast.2 mph100%29.95 "Hg4 mi
2:30 AM73 °FOvercast.3 mph100%29.95 "Hg4 mi
2:00 AM73 °FMostly cloudy.6 mph100%29.98 "Hg4 mi
1:30 AM73 °FLight rain. Overcast.6 mph100%29.98 "Hg3 mi
1:00 AM73 °FLight rain. Overcast.5 mph100%29.98 "Hg2 mi
12:30 AM73 °FLight rain. Overcast.5 mph100%30.01 "Hg2 mi
12:00 AM73 °FLight rain. Overcast.3 mph100%30.01 "Hg2 mi
11:30 PM
Mon, Aug 3
73 °FLight rain. Overcast.3 mph100%30.01 "Hg3 mi
11:00 PM73 °FDrizzle. Overcast.5 mph100%30.01 "Hg4 mi
10:30 PM73 °FDrizzle. Overcast.6 mph100%30.01 "Hg4 mi
10:00 PM75 °FDrizzle. Overcast.6 mph100%29.98 "Hg4 mi
9:30 PM75 °FDrizzle. Overcast.8 mph94%29.98 "Hg6 mi
9:00 PM75 °FPartly cloudy.8 mph100%29.98 "Hg6 mi
8:30 PM75 °FPartly cloudy.7 mph100%29.98 "HgN/A
8:00 PM75 °FPartly cloudy.7 mph100%29.95 "HgN/A
7:30 PM75 °FPartly cloudy.7 mph94%29.95 "HgN/A
7:00 PM77 °FPartly cloudy.7 mph89%29.92 "Hg5 mi
6:30 PM77 °FPartly sunny.6 mph94%29.92 "Hg5 mi
6:00 PM77 °FPartly sunny.7 mph89%29.92 "HgN/A
5:30 PM79 °FPassing clouds.8 mph84%29.92 "HgN/A
5:00 PM81 °FPassing clouds.10 mph79%29.92 "HgN/A
4:30 PM81 °FPassing clouds.12 mph79%29.92 "HgN/A
4:00 PM82 °FPassing clouds.13 mph79%29.92 "HgN/A
3:30 PM82 °FPassing clouds.12 mph79%29.92 "HgN/A
3:00 PM82 °FPassing clouds.14 mph79%29.95 "HgN/A
2:30 PM82 °FPassing clouds.12 mph79%29.95 "HgN/A
2:00 PM81 °FScattered clouds.10 mph84%29.95 "HgN/A
Weather by CustomWeather, © 2015

See weather overviewHow to use our weather pages